User: anonymous   Login
Location: Caltech
(34.1382°N, 118.1253°W)
Time: 16:11:35
(UTC-08:00)
Language:

Lacrosse 5 - Orbit

View from above orbital plane
View from above orbital plane
View from above satellite
View from above satellite

Ground track
Ground track

The orbit data is extracted from the following two-line orbital elements,

1 28646U 05016A   16341.26238575 0.00000000  00000-0  00000-0 0    04
2 28646  57.0130 126.0792 0009000 197.2115 162.7885 14.51936232    09
Epoch (UTC): 06 December 2016 06:17:50
Eccentricity: 0.0009000
inclination: 57.0130°
perigee height: 713 km
apogee height: 726 km
right ascension of ascending node: 126.0792°
argument of perigee: 197.2115°
revolutions per day: 14.51936232
mean anomaly at epoch: 162.7885°
orbit number at epoch: 0

The dashed part of the orbit path shows where the satellite is in the earth's shadow,  

DLR